Tracking 21094 objects as of 12-Aug-2020
HD Live streaming from Space Station
objects crossing your sky now
Track the most recent launched group of Starlink satellites

LANDSAT 2

Track LANDSAT 2 now!
10-day predictions
LANDSAT 2 is classified as:


NORAD ID: 7615
Int'l Code: 1975-004A
Perigee: 905.4 km
Apogee: 919.5 km
Inclination: 98.8 °
Period: 103.1 minutes
Semi major axis: 7283 km
RCS: 3.0869 m2 (large)
Launch date: January 22, 1975
Source: United States (US)
Launch site: AIR FORCE WESTERN TEST RANGE (AFWTR)
aabbcc
Your satellite tracking list
Your tracking list is empty




NASA's NSSDC Master Catalog

Two Line Element Set (TLE):
1  7615U 75004A   20224.89228279 -.00000173 +00000-0 -95015-4 0  9999
2  7615 098.7574 219.6634 0009667 080.0493 280.1761 13.96682550321033
Source of the keplerian elements: AFSPC